Showing default

IRIDIUM 107, 42960

Orbit data source: Space-Track

IRIDIUM 107, 42960 is a payload satellite owned by Iridium (US) in LEO that was launched on Mon, 09 Oct 2017 UTC via an FALCON 9 launch vehicle from the Air Force Western Test Range (AFWTR). Payload-class satellites include a variety of spacecraft equipped with specific instruments for various scientific and technological missions. These include communications satellites like Starlink; space stations such as the ISS; scientific satellites like the Hubble; Earth observation satellites from companies like Planet Labs, Umbra, and HawkEye 360; GPS; miniature CubeSats for education and research; and military/defense satellites.

Loading next visibility...
Identifier
42960, 2017-061F
Orbit
LEO
Country
Flag of USUS
Related business
Manufacturer
OATK SSG Gilbert
Mission
Operational Commercial Communications
Bus & Motor
ELITEBUS, Unknown motor
Mass
860 kg wet, 700 kg dry
Launch date (UTC)
2017-10-09 (8 years ago)
Launch vehicle
FALCON 9
Launch site
Air Force Western Test Range (AFWTR)
Object type
Payload
Rocket body
Debris
Shape & HBR
Trap Box + 2 Pan, 4.8 m
Radar Cross Section
10.154 m², Large (>1 m²)

Expand to show TLE details & history
Last TLE update: 15 hours ago

TLE from 15 hours ago
0 IRIDIUM 107
1 42960U 17061F   26036.07392016  .00000197  00000-0  63350-4 0  9999
2 42960  86.3925  80.5179 0002373  85.0479 275.0988 14.34218614435885
Epoch: 2026-02-05T01:46Z
TLE epoch observation values (Epoch: 2026-02-05T01:46:26.701Z)
Latitude
-0.00001°
Longitude
-81.32473°
Altitude
780.565 km
Speed
7.464 km/s
True Right ascension
05h 22m 04s
True Declination
0° 00' 00"
Sunlit
Object was in full shadow at epoch
Visualization orbit readout
Latitude
Unknown
Longitude
Unknown
Altitude
Unknown
Speed
Unknown
Apparent Right ascension
Unknown
Apparent Declination
Unknown
Sunlit
N/A
Visualization observer readout
Local Sidereal Time
19:10:36
Azimuth
Unknown
Elevation
Unknown
Doppler factor
Unknown
Orbital elements
Apogee altitude
776.326 km
Perigee altitude
772.932 km
Semi-major axis
7,152.766 km
Eccentricity
0.00024
Inclination
86.3925°
RAAN
80.5179°
Arg. of periapsis
85.0479°
True anomaly
275.07171°
Mean anomaly
275.0988°
Eccentric anomaly
275.08526°
Mean motion
3.58783 °/min
Orbital period
100.34 mins
BSTAR
0.00006335
Loading maneuver chart data...
Computing Atmospheric mass density...
Loading historical data...
Loading historical data...
Loading historical data...
Loading historical data...
Loading historical data...
Loading historical data...
Loading historical data...

Documentation

Showing up to 5 results
|